星链-2630 (STARLINK-2630 )

导读 | 星芒AI

STARLINK-2630 是 SpaceX Starlink 项目中的一颗低轨通信卫星,属于第二代 Starlink 卫星星座的一部分。该卫星旨在提升全球互联网覆盖,特别是在偏远和网络基础设施薄弱的地区。它采用先进的推进系统和激光通信技术,以提高数据传输速度和卫星间通信效率。STARLINK-2630 的发射有助于增强 Starlink 网络的稳定性和容量,支持更多用户接入高速互联网服务。

基本信息
目录编号:
48381
目录名称:
STARLINK-2630
国际标识:
2021-038AE
轨道中心:
EARTH
卫星名称:
星链-2630
卫星全名:
星链-2630 (STARLINK-2630 )
卫星状态:
在轨 (已飞行1689 天)
发射日期:
2021-05-04 UTC
国别 :
美国 (US)
星等 :
--
轨道信息
数据来源 国际轨道数据
星历时间: 2025-12-18T01:22:06+0800
18小时前
查看轨道信息
半长轴: 6925.338km
偏心率: 0.0001417
轨道倾角: 53.058°
近地点辐角 91.762°
升交点赤经 359.582°
平近点角 268.353°
近地点: 546.221km
远地点: 548.185km
周期: 95.592分钟
每日圈数: 15.064035
详细信息
固有亮度:
5
最大亮度:
2.5
卫星平台:
Starlink V1.0
覆盖范围:
全球
运营商:
太空探索技术公司
运营商所在国:
美国
制造商(研发单位):
太空探索技术公司
制造商所在国:
美国
使用方式:
暂无
卫星简介
星链(Starlink)计划是由太空探索技术公司(SpaceX)提出的一个巨型低轨卫星互联网星座项目,计划在2019年至2024年间在太空搭建由约1.2万颗卫星组成的“星链”网络,其中1584颗将部署在地球上空550千米处的近地轨道,并从2020年开始工作。该卫星仍在工作。
2D轨道图
3D轨道图
轨道高度分析图
轨道倾角分析图
轨道综合分析图
查看轨道综合分析图